ASL19C LYBE-LGKR

Flight info

Callsign ASL19C
Flight time 1h 3m
Altitude 38000
Route VAL DCT LEBGA DCT RODON/N0451F370 DCT LIMJA DCT PITAS
Aircraft E195/M-SDE3GILORVW/S

Departure

Time 2026-05-01 12:58
Airport Belgrade Nikola Tesla Airport (LYBE)

Arrival

Time 2026-05-01 14:01
Airport Corfu Ioannis Kapodistrias International Airport (LGKR)
Time Latitude Longitude Altitude Speed Heading
2026-05-01 12:40 44.82239 20.28897 305 ft 0 kts 212°
2026-05-01 12:48 44.82243 20.28900 305 ft 3 kts 210°
2026-05-01 12:48 44.82267 20.28915 304 ft 4 kts 190°
2026-05-01 12:48 44.82294 20.28917 304 ft 4 kts 169°
2026-05-01 12:49 44.82319 20.28906 306 ft 4 kts 151°
2026-05-01 12:49 44.82341 20.28885 303 ft 4 kts 136°
2026-05-01 12:49 44.82356 20.28861 306 ft 1 kts 122°
2026-05-01 12:50 44.82356 20.28862 306 ft 1 kts 122°
2026-05-01 12:50 44.82334 20.28912 304 ft 10 kts 121°
2026-05-01 12:51 44.82286 20.29021 305 ft 15 kts 121°
2026-05-01 12:51 44.82229 20.29154 305 ft 16 kts 121°
2026-05-01 12:51 44.82109 20.29419 308 ft 10 kts 122°
2026-05-01 12:52 44.82086 20.29493 307 ft 8 kts 90°
2026-05-01 12:52 44.82098 20.29628 307 ft 8 kts 130°
2026-05-01 12:52 44.82072 20.29692 308 ft 8 kts 120°
2026-05-01 12:53 44.82005 20.29846 306 ft 15 kts 123°
2026-05-01 12:53 44.81939 20.29994 305 ft 20 kts 122°
2026-05-01 12:53 44.81856 20.30183 305 ft 25 kts 122°
2026-05-01 12:54 44.81754 20.30419 307 ft 32 kts 121°
2026-05-01 12:54 44.81505 20.30991 305 ft 37 kts 121°
2026-05-01 12:54 44.81378 20.31292 305 ft 27 kts 110°
2026-05-01 12:55 44.81277 20.31479 305 ft 18 kts 122°
2026-05-01 12:55 44.81212 20.31624 306 ft 17 kts 119°
2026-05-01 12:55 44.81153 20.31771 306 ft 17 kts 121°
2026-05-01 12:56 44.81091 20.31919 308 ft 18 kts 121°
2026-05-01 12:56 44.81037 20.32068 306 ft 15 kts 120°
2026-05-01 12:56 44.80993 20.32185 304 ft 14 kts 97°
2026-05-01 12:56 44.81051 20.32279 306 ft 14 kts 22°
2026-05-01 12:57 44.81155 20.32304 305 ft 19 kts 356°
2026-05-01 12:57 44.81605 20.31450 304 ft 116 kts 302°
2026-05-01 12:57 44.82133 20.30250 332 ft 167 kts 303°
2026-05-01 12:58 44.82755 20.28793 996 ft 176 kts 304°
2026-05-01 12:58 44.83384 20.27336 1999 ft 173 kts 303°
2026-05-01 12:58 44.83712 20.25725 2852 ft 177 kts 267°
2026-05-01 12:59 44.82089 20.23148 4309 ft 190 kts 203°
2026-05-01 12:59 44.80785 20.22576 4825 ft 215 kts 196°
2026-05-01 12:59 44.77534 20.21485 6328 ft 250 kts 193°
2026-05-01 13:00 44.73865 20.20299 8018 ft 279 kts 193°
2026-05-01 13:00 44.71948 20.19609 8779 ft 292 kts 191°
2026-05-01 13:01 44.68013 20.18853 9532 ft 300 kts 185°
2026-05-01 13:01 44.65928 20.18452 10017 ft 304 kts 186°
2026-05-01 13:01 44.61556 20.17398 10420 ft 329 kts 189°
2026-05-01 13:02 44.59298 20.16775 10882 ft 331 kts 189°
2026-05-01 13:07 44.08811 19.97991 19969 ft 383 kts 194°
2026-05-01 13:07 44.06232 19.97011 20339 ft 384 kts 194°
2026-05-01 13:07 44.03674 19.96038 20710 ft 387 kts 194°
2026-05-01 13:08 44.01070 19.95051 21080 ft 389 kts 194°
2026-05-01 13:08 43.98456 19.94061 21537 ft 388 kts 194°
2026-05-01 13:08 43.95851 19.93074 21969 ft 388 kts 195°
2026-05-01 13:08 43.93239 19.92079 22316 ft 390 kts 195°
2026-05-01 13:09 43.90612 19.91086 22667 ft 392 kts 195°
2026-05-01 13:09 43.87971 19.90089 23039 ft 394 kts 195°
2026-05-01 13:09 43.85325 19.89090 23392 ft 396 kts 195°
2026-05-01 13:09 43.82663 19.88086 23742 ft 397 kts 195°
2026-05-01 13:10 43.79980 19.87076 24005 ft 401 kts 195°
2026-05-01 13:10 43.77285 19.86057 24278 ft 402 kts 195°
2026-05-01 13:10 43.74571 19.85040 24532 ft 405 kts 195°
2026-05-01 13:10 43.71847 19.84014 24826 ft 406 kts 195°
2026-05-01 13:11 43.69111 19.82989 25106 ft 407 kts 195°
2026-05-01 13:11 43.66406 19.81972 25347 ft 410 kts 195°
2026-05-01 13:11 43.63646 19.80941 25612 ft 411 kts 195°
2026-05-01 13:11 43.60865 19.79899 25811 ft 414 kts 195°
2026-05-01 13:12 43.58087 19.78859 26128 ft 415 kts 195°
2026-05-01 13:12 43.55295 19.77815 26365 ft 416 kts 195°
2026-05-01 13:12 43.52498 19.76773 26566 ft 419 kts 195°
2026-05-01 13:12 43.49681 19.75718 26806 ft 420 kts 194°
2026-05-01 13:13 43.46850 19.74667 27003 ft 421 kts 194°
2026-05-01 13:13 43.44017 19.73612 27269 ft 422 kts 195°
2026-05-01 13:13 43.41190 19.72559 27571 ft 422 kts 194°
2026-05-01 13:13 43.38337 19.71501 27712 ft 425 kts 195°
2026-05-01 13:14 43.36446 19.70797 27861 ft 426 kts 194°
2026-05-01 13:14 43.32640 19.69388 28161 ft 427 kts 194°
2026-05-01 13:14 43.29763 19.68321 28354 ft 429 kts 194°
2026-05-01 13:14 43.26880 19.67255 28592 ft 430 kts 194°
2026-05-01 13:15 43.24918 19.66528 28644 ft 433 kts 194°
2026-05-01 13:15 43.22040 19.65464 28770 ft 436 kts 194°
2026-05-01 13:15 43.19114 19.64386 29069 ft 435 kts 194°
2026-05-01 13:15 43.16182 19.63302 29260 ft 436 kts 194°
2026-05-01 13:16 43.13244 19.62224 29415 ft 438 kts 194°
2026-05-01 13:16 43.10291 19.61135 29598 ft 440 kts 194°
2026-05-01 13:16 43.07321 19.60043 29747 ft 442 kts 194°
2026-05-01 13:17 42.98315 19.56738 30054 ft 448 kts 194°
2026-05-01 13:17 42.95356 19.55656 30145 ft 438 kts 194°
2026-05-01 13:18 42.86439 19.52398 30206 ft 447 kts 194°
2026-05-01 13:18 42.80420 19.50189 30219 ft 448 kts 197°
2026-05-01 13:19 42.74372 19.48279 30190 ft 448 kts 182°
2026-05-01 13:19 42.68252 19.49113 30183 ft 442 kts 161°
2026-05-01 13:20 42.65380 19.50576 30191 ft 442 kts 151°
2026-05-01 13:20 42.59968 19.54589 30210 ft 450 kts 147°
2026-05-01 13:21 42.51865 19.60860 30184 ft 446 kts 148°
2026-05-01 13:21 42.46433 19.64914 30171 ft 442 kts 150°
2026-05-01 13:22 42.40972 19.68820 30174 ft 445 kts 151°
2026-05-01 13:22 42.35481 19.72598 30179 ft 442 kts 151°
2026-05-01 13:23 42.29844 19.76103 30172 ft 452 kts 160°
2026-05-01 13:23 42.26826 19.77157 30167 ft 439 kts 169°
2026-05-01 13:23 42.23813 19.77725 30165 ft 439 kts 173°
2026-05-01 13:24 42.17679 19.78231 30181 ft 449 kts 179°
2026-05-01 13:25 42.08375 19.78069 30148 ft 445 kts 182°
2026-05-01 13:25 42.02180 19.77811 30161 ft 443 kts 182°
2026-05-01 13:26 41.96002 19.77162 30152 ft 446 kts 187°
2026-05-01 13:26 41.89859 19.76110 30141 ft 450 kts 188°
2026-05-01 13:27 41.83640 19.74997 30130 ft 452 kts 188°
2026-05-01 13:27 41.74413 19.73362 30126 ft 446 kts 188°
2026-05-01 13:28 41.65151 19.71704 30127 ft 444 kts 190°
2026-05-01 13:29 41.52899 19.69551 30108 ft 450 kts 189°
2026-05-01 13:31 41.34691 19.66399 30092 ft 441 kts 186°
2026-05-01 13:31 41.25639 19.68557 30092 ft 450 kts 157°
2026-05-01 13:32 41.20241 19.72831 30109 ft 453 kts 148°
2026-05-01 13:33 41.07008 19.84067 28888 ft 446 kts 151°
2026-05-01 13:34 41.01570 19.87686 27472 ft 433 kts 164°
2026-05-01 13:34 40.95783 19.89450 26174 ft 421 kts 173°
2026-05-01 13:35 40.90034 19.90376 24926 ft 411 kts 176°
2026-05-01 13:35 40.87186 19.90766 24217 ft 411 kts 175°
2026-05-01 13:35 40.81569 19.91424 22980 ft 401 kts 179°
2026-05-01 13:36 40.78853 19.91591 22225 ft 382 kts 180°
2026-05-01 13:36 40.76247 19.91705 21267 ft 368 kts 180°
2026-05-01 13:36 40.71325 19.91585 19524 ft 345 kts 186°
2026-05-01 13:37 40.68951 19.91402 18637 ft 338 kts 186°
2026-05-01 13:37 40.66615 19.91196 17637 ft 333 kts 186°
2026-05-01 13:37 40.64319 19.90989 16658 ft 328 kts 186°
2026-05-01 13:37 40.62071 19.90783 15782 ft 321 kts 186°
2026-05-01 13:38 40.57632 19.90392 14491 ft 317 kts 186°
2026-05-01 13:38 40.55459 19.90195 13859 ft 311 kts 186°
2026-05-01 13:38 40.53306 19.90005 13114 ft 308 kts 185°
2026-05-01 13:39 40.51178 19.89817 12418 ft 304 kts 186°
2026-05-01 13:39 40.49115 19.89629 11775 ft 298 kts 185°
2026-05-01 13:39 40.47028 19.89447 11112 ft 296 kts 184°
2026-05-01 13:39 40.44992 19.89269 10675 ft 296 kts 184°
2026-05-01 13:40 40.42958 19.89090 10314 ft 292 kts 184°
2026-05-01 13:40 40.40938 19.88908 10091 ft 295 kts 184°
2026-05-01 13:40 40.38893 19.88731 10042 ft 293 kts 184°
2026-05-01 13:40 40.36874 19.88554 10010 ft 289 kts 184°
2026-05-01 13:41 40.34871 19.88375 9999 ft 288 kts 184°
2026-05-01 13:41 40.32867 19.88200 9992 ft 289 kts 184°
2026-05-01 13:41 40.30859 19.88021 9992 ft 289 kts 184°
2026-05-01 13:41 40.28850 19.87846 10003 ft 289 kts 184°
2026-05-01 13:42 40.26842 19.87668 9998 ft 289 kts 184°
2026-05-01 13:42 40.24836 19.87492 9993 ft 288 kts 184°
2026-05-01 13:42 40.22822 19.87316 10003 ft 291 kts 184°
2026-05-01 13:42 40.20810 19.87139 10001 ft 294 kts 185°
2026-05-01 13:43 40.18780 19.86957 9993 ft 291 kts 184°
2026-05-01 13:43 40.16759 19.86782 10002 ft 291 kts 184°
2026-05-01 13:43 40.14729 19.86610 10002 ft 293 kts 184°
2026-05-01 13:43 40.12693 19.86429 9994 ft 293 kts 184°
2026-05-01 13:44 40.10661 19.86249 9996 ft 292 kts 184°
2026-05-01 13:44 40.08637 19.86070 10005 ft 291 kts 184°
2026-05-01 13:44 40.06610 19.85894 10009 ft 293 kts 184°
2026-05-01 13:44 40.04581 19.85714 10010 ft 291 kts 184°
2026-05-01 13:45 40.02561 19.85543 10000 ft 292 kts 184°
2026-05-01 13:45 40.00537 19.85363 9999 ft 291 kts 185°
2026-05-01 13:45 39.98510 19.85290 9998 ft 293 kts 173°
2026-05-01 13:45 39.96563 19.86049 10013 ft 292 kts 158°
2026-05-01 13:46 39.94688 19.87100 10006 ft 294 kts 156°
2026-05-01 13:46 39.92826 19.88215 10001 ft 294 kts 155°
2026-05-01 13:46 39.90975 19.89346 10012 ft 292 kts 155°
2026-05-01 13:46 39.89137 19.90473 10035 ft 291 kts 155°
2026-05-01 13:47 39.87298 19.91601 10034 ft 292 kts 155°
2026-05-01 13:47 39.85463 19.92734 10027 ft 292 kts 155°
2026-05-01 13:47 39.83644 19.93857 10017 ft 294 kts 155°
2026-05-01 13:47 39.81796 19.95001 9998 ft 294 kts 155°
2026-05-01 13:48 39.79957 19.96141 9996 ft 292 kts 155°
2026-05-01 13:48 39.78125 19.97278 10009 ft 291 kts 155°
2026-05-01 13:48 39.76293 19.98414 10014 ft 292 kts 155°
2026-05-01 13:48 39.74457 19.99550 10002 ft 292 kts 155°
2026-05-01 13:49 39.72624 20.00686 10028 ft 292 kts 155°
2026-05-01 13:49 39.70781 20.01836 10024 ft 295 kts 155°
2026-05-01 13:49 39.68937 20.02990 10041 ft 293 kts 155°
2026-05-01 13:49 39.67091 20.04135 10047 ft 294 kts 155°
2026-05-01 13:50 39.65248 20.05290 10061 ft 293 kts 155°
2026-05-01 13:50 39.63439 20.06421 10034 ft 293 kts 155°
2026-05-01 13:50 39.61605 20.07565 10007 ft 292 kts 155°
2026-05-01 13:50 39.59777 20.08699 9995 ft 292 kts 155°
2026-05-01 13:51 39.57939 20.09847 9823 ft 292 kts 155°
2026-05-01 13:51 39.56114 20.10978 9115 ft 287 kts 154°
2026-05-01 13:51 39.54325 20.12065 8394 ft 279 kts 154°
2026-05-01 13:51 39.52587 20.13098 7688 ft 272 kts 154°
2026-05-01 13:52 39.50883 20.14093 6913 ft 271 kts 154°
2026-05-01 13:52 39.49167 20.15069 6177 ft 267 kts 154°
2026-05-01 13:52 39.47457 20.16027 5622 ft 266 kts 155°
2026-05-01 13:52 39.45766 20.16972 5293 ft 263 kts 155°
2026-05-01 13:53 39.44080 20.17913 5086 ft 268 kts 155°
2026-05-01 13:53 39.40695 20.19801 5012 ft 260 kts 155°
2026-05-01 13:53 39.38956 20.20388 4970 ft 262 kts 180°
2026-05-01 13:54 39.37233 20.19792 4967 ft 256 kts 211°
2026-05-01 13:54 39.36036 20.18205 4996 ft 239 kts 237°
2026-05-01 13:54 39.35374 20.16328 4618 ft 234 kts 263°
2026-05-01 13:54 39.35472 20.14252 4188 ft 230 kts 282°
2026-05-01 13:55 39.35784 20.12251 3859 ft 225 kts 284°
2026-05-01 13:55 39.36195 20.10314 3501 ft 222 kts 289°
2026-05-01 13:55 39.36758 20.08463 3151 ft 219 kts 297°
2026-05-01 13:55 39.37540 20.06730 3082 ft 226 kts 303°
2026-05-01 13:56 39.38393 20.05034 3051 ft 223 kts 304°
2026-05-01 13:56 39.39254 20.03381 3012 ft 220 kts 305°
2026-05-01 13:56 39.40116 20.01735 3010 ft 221 kts 306°
2026-05-01 13:56 39.40981 20.00090 3020 ft 222 kts 305°
2026-05-01 13:57 39.41852 19.98440 3017 ft 221 kts 306°
2026-05-01 13:57 39.42424 19.97349 3009 ft 221 kts 305°
2026-05-01 13:57 39.43655 19.95235 2991 ft 220 kts 322°
2026-05-01 13:57 39.45024 19.94398 2975 ft 215 kts 343°
2026-05-01 13:58 39.46464 19.94005 2626 ft 211 kts 355°
2026-05-01 13:58 39.47878 19.93976 2518 ft 198 kts
2026-05-01 13:58 39.49240 19.94027 2251 ft 192 kts 360°
2026-05-01 13:58 39.50539 19.93912 2011 ft 183 kts 351°
2026-05-01 13:59 39.51762 19.93679 1815 ft 165 kts 352°
2026-05-01 13:59 39.52761 19.93504 1842 ft 143 kts 349°
2026-05-01 13:59 39.53755 19.93225 1640 ft 149 kts 342°
2026-05-01 13:59 39.54763 19.92833 1432 ft 153 kts 340°
2026-05-01 14:00 39.55775 19.92417 1189 ft 149 kts 340°
2026-05-01 14:00 39.56783 19.92092 833 ft 154 kts 348°
2026-05-01 14:00 39.57490 19.91932 586 ft 155 kts 348°
2026-05-01 14:00 39.58537 19.91661 256 ft 151 kts 345°
2026-05-01 14:01 39.59545 19.91384 29 ft 142 kts 346°
2026-05-01 14:01 39.60390 19.91160 18 ft 99 kts 348°
2026-05-01 14:01 39.60850 19.91040 18 ft 32 kts 348°
2026-05-01 14:01 39.61013 19.91016 18 ft 15 kts 26°
2026-05-01 14:02 39.61044 19.91059 18 ft 4 kts 57°
2026-05-01 14:02 39.61056 19.91089 18 ft 0 kts 65°
2026-05-01 14:02 39.61058 19.91097 18 ft 2 kts 72°
2026-05-01 14:02 39.61054 19.91117 17 ft 3 kts 117°
2026-05-01 14:03 39.61024 19.91134 17 ft 9 kts 163°
2026-05-01 14:03 39.60944 19.91158 17 ft 14 kts 169°
2026-05-01 14:03 39.60845 19.91182 18 ft 15 kts 169°
2026-05-01 14:03 39.60737 19.91208 19 ft 16 kts 169°
2026-05-01 14:04 39.60625 19.91248 17 ft 17 kts 149°
2026-05-01 14:04 39.60586 19.91347 17 ft 11 kts 79°
2026-05-01 14:04 39.60590 19.91368 17 ft 3 kts 78°
2026-05-01 14:04 39.60592 19.91387 17 ft 1 kts 78°
2026-05-01 14:05 39.60593 19.91388 17 ft 0 kts 78°